TimeIST,TemperatureF,Dew PointF,Humidity,Sea Level PressureIn,VisibilityMPH,Wind Direction,Wind SpeedMPH,Gust SpeedMPH,PrecipitationIn,Events,Conditions,WindDirDegrees,DateUTC
12:00 AM,93.2,37.4,14,29.68,2.2,Variable,4.6,-,N/A,,Haze,0,2013-05-06 18:30:00
1:00 AM,89.6,39.2,17,29.68,2.2,Variable,4.6,-,N/A,,Haze,0,2013-05-06 19:30:00
2:30 AM,90,51,17,29.58,1,NNW,4.6,,,,Haze,340,2013-05-06 21:00:00
4:00 AM,87.8,35.6,16,29.65,2.2,Variable,5.8,-,N/A,,Haze,0,2013-05-06 22:30:00
5:00 AM,86.0,37.4,18,29.68,2.2,NNW,4.6,-,N/A,,Haze,330,2013-05-06 23:30:00
5:30 AM,86,42,13,29.60,1,NW,2.3,,,,Haze,320,2013-05-07 00:00:00
6:00 AM,86.0,39.2,19,29.68,2.2,Calm,Calm,-,N/A,,Haze,0,2013-05-07 00:30:00
7:00 AM,89.6,42.8,20,29.71,2.2,NE,4.6,-,N/A,,Haze,40,2013-05-07 01:30:00
8:00 AM,95.0,42.8,16,29.71,2.2,NE,4.6,-,N/A,,Haze,50,2013-05-07 02:30:00
8:30 AM,96,43,9,29.62,1,ENE,6.9,,,,Haze,70,2013-05-07 03:00:00
9:00 AM,96.8,41.0,15,29.74,2.2,East,9.2,-,N/A,,Haze,80,2013-05-07 03:30:00
10:00 AM,98.6,39.2,13,29.74,2.5,East,6.9,-,N/A,,Haze,80,2013-05-07 04:30:00
11:00 AM,102.2,33.8,9,29.74,2.5,Variable,6.9,-,N/A,,Haze,0,2013-05-07 05:30:00
11:30 AM,103,33,4,29.58,2,NE,6.9,,,,Haze,50,2013-05-07 06:00:00
12:00 PM,102.2,30.2,8,29.74,2.5,Variable,6.9,-,N/A,,Haze,0,2013-05-07 06:30:00
1:00 PM,104.0,32.0,8,29.74,2.5,Variable,9.2,-,N/A,,Haze,0,2013-05-07 07:30:00
2:30 PM,104,34,4,29.58,2,,3.5,,,,Haze,,2013-05-07 09:00:00
3:00 PM,105.8,30.2,7,29.68,3.1,NW,9.2,-,N/A,,Haze,320,2013-05-07 09:30:00
4:00 PM,105.8,32.0,8,29.65,3.1,Variable,4.6,-,N/A,,Haze,0,2013-05-07 10:30:00
5:00 PM,105.8,32.0,8,29.65,3.1,NW,8.1,-,N/A,,Haze,310,2013-05-07 11:30:00
5:30 PM,105,35,4,29.53,2,NW,5.8,,,,Haze,320,2013-05-07 12:00:00
6:00 PM,104.0,30.2,8,29.65,3.1,WNW,8.1,-,N/A,,Haze,300,2013-05-07 12:30:00
7:00 PM,100.4,32.0,9,29.68,2.5,Variable,5.8,-,N/A,,Haze,0,2013-05-07 13:30:00
8:00 PM,98.6,33.8,10,29.68,2.5,Calm,Calm,-,N/A,,Haze,0,2013-05-07 14:30:00
8:30 PM,96,37,6,29.59,2,Calm,Calm,,,,Haze,,2013-05-07 15:00:00
9:00 PM,95.0,35.6,12,29.71,2.5,Calm,Calm,-,N/A,,Haze,0,2013-05-07 15:30:00
10:00 PM,93.2,39.2,15,29.71,2.5,Calm,Calm,-,N/A,,Haze,0,2013-05-07 16:30:00
11:00 PM,91.4,42.8,18,29.71,2.5,Calm,Calm,-,N/A,,Haze,0,2013-05-07 17:30:00
11:30 PM,88,46,14,29.62,2,Calm,Calm,,,,Haze,,2013-05-07 18:00:00